Weather History for Nome, AK

Change the Weather History Date:

Tuesday, February 19, 2013

  Actual Average Record
Temperature  
Mean Temperature 5 °F -  
Max Temperature 9 °F 16 °F 45 °F (1934)
Min Temperature 0 °F - -39 °F (1971)
Degree Days  
Heating Degree Days 60 57  
Month to date heating degree days 1201 1105  
Since 1 July heating degree days 8915 8776  
Cooling Degree Days 0    
Month to date cooling degree days 0  
Year to date cooling degree days 0  
Moisture  
Dew Point -7 °F    
Average Humidity 0    
Maximum Humidity 0    
Minimum Humidity 0    
Precipitation  
Precipitation 0.00 in 0.03 in 1.32 in (1920)
Month to date precipitation 0.36 0.64  
Year to date precipitation 1.52 1.58  
Snow  
Snow 0.00 in 0.50 in 14.00 in (1920)
Month to date snowfall 7.5 8.2  
Since 1 July snowfall 41.3 52.7  
Snow Depth 30.00 in    
Sea Level Pressure  
Sea Level Pressure 29.78 in    
Wind  
Wind Speed 15 mph (NE)    
Max Wind Speed 24 mph    
Max Gust Speed 31 mph    
Visibility 10 miles    
Events Snow    
T = Trace of Precipitation, MM = Missing Value Source: NWS Daily Summary

Daily Weather History Graph

Daily Weather History Graph

Search for Another Location

Airport:

Trip Planner

Search our weather history database for the weather conditions in past years. The results will help you decide how hot, cold, wet, or windy it might be!

Date:

Astronomy

Feb. 19, 2013 Rise Set
Actual Time 9:43 AM AKST 6:48 PM AKST
Civil Twilight 8:52 AM AKST 7:39 PM AKST
Nautical Twilight 7:56 AM AKST 8:36 PM AKST
Astronomical Twilight 7:00 AM AKST 9:32 PM AKST
Moon 12:07 PM AKST (2/19) 6:48 AM AKST (2/19)
Length of Visible Light 10h 47m
Length of Day
9h 05m
Waxing Gibbous, 69% of the Moon is Illuminated
Feb 19
Waxing Gibbous
Feb 25
Full
Mar 4
Last Quarter
Mar 11
New
Mar 19
First Quarter

Hourly Weather History & Observations

Time (AKST) Temp. Windchill Dew Point Humidity Pressure Visibility Wind Dir Wind Speed Gust Speed Precip Events Conditions
12:53 AM 5.0 °F -10.0 °F -9.0 °F 52% 30.03 in 10.0 mi ENE 10.4 mph - N/A   Overcast
1:53 AM 3.9 °F -14.3 °F -9.0 °F 55% 30.01 in 10.0 mi ENE 15.0 mph - N/A   Overcast
3:53 AM 5.0 °F -13.0 °F -8.0 °F 55% 29.97 in 10.0 mi ENE 15.0 mph - N/A   Overcast
4:53 AM 3.9 °F -15.6 °F -8.0 °F 58% 29.92 in 10.0 mi East 17.3 mph - N/A   Mostly Cloudy
5:53 AM 3.0 °F -15.5 °F -8.0 °F 60% 29.90 in 10.0 mi ENE 15.0 mph - N/A   Overcast
6:53 AM 3.0 °F -12.5 °F -9.0 °F 57% 29.92 in 10.0 mi ENE 10.4 mph - N/A   Overcast
7:53 AM 3.0 °F -8.0 °F -9.9 °F 55% 29.92 in 10.0 mi ENE 5.8 mph - N/A   Mostly Cloudy
8:53 AM 3.0 °F -11.5 °F -9.0 °F 57% 29.87 in 10.0 mi ENE 9.2 mph - N/A   Scattered Clouds
9:53 AM 1.9 °F -14.7 °F -9.0 °F 60% 29.84 in 10.0 mi East 11.5 mph - N/A   Scattered Clouds
10:53 AM 3.9 °F -12.2 °F -8.0 °F 58% 29.81 in 10.0 mi ENE 11.5 mph - N/A   Mostly Cloudy
11:53 AM 1.9 °F -17.5 °F -8.0 °F 63% 29.80 in 10.0 mi NE 16.1 mph - N/A   Scattered Clouds
12:53 PM 3.9 °F -15.0 °F -7.1 °F 60% 29.77 in 10.0 mi NNE 16.1 mph - N/A   Scattered Clouds
1:53 PM 6.1 °F -13.3 °F -5.1 °F 60% 29.74 in 10.0 mi NE 18.4 mph 23.0 mph N/A Snow Low Drifting Snow
3:53 PM 8.1 °F -9.6 °F -4.0 °F 58% 29.70 in 10.0 mi NE 16.1 mph 23.0 mph N/A Snow Low Drifting Snow
4:53 PM 8.1 °F -2.0 °F -4.0 °F 58% 29.68 in 10.0 mi Variable 5.8 mph - N/A   Scattered Clouds
5:53 PM 7.0 °F -9.8 °F -6.0 °F 55% 29.65 in 10.0 mi NE 13.8 mph 21.9 mph N/A   Scattered Clouds
6:53 PM 7.0 °F -14.0 °F -5.1 °F 58% 29.62 in 9.0 mi NNE 23.0 mph 29.9 mph N/A   Scattered Clouds
7:53 PM 6.1 °F -11.6 °F -5.1 °F 60% 29.62 in 10.0 mi NE 15.0 mph 21.9 mph N/A   Scattered Clouds
8:53 PM 8.1 °F -10.7 °F -4.0 °F 58% 29.59 in 10.0 mi NE 18.4 mph 24.2 mph N/A   Scattered Clouds
9:53 PM 7.0 °F -12.6 °F -5.1 °F 58% 29.56 in 10.0 mi NE 19.6 mph 29.9 mph N/A   Partly Cloudy
10:53 PM 6.1 °F -13.8 °F -6.0 °F 58% 29.55 in 10.0 mi ENE 19.6 mph 26.5 mph N/A   Partly Cloudy
11:53 PM 5.0 °F -16.7 °F -6.0 °F 61% 29.54 in 10.0 mi NE 23.0 mph 29.9 mph N/A   Partly Cloudy